{"data":{"norad_id":67530,"intl_designator":"2026-013J","name":"HULIANWANG DIGUI-154","alt_names":[],"object_type":"PAYLOAD","status":"ACTIVE","operator":null,"country":"PRC","launch_date":"2026-01-19","launch_site_code":"WSC","launch_vehicle":null,"mission":null,"orbit_class":"UNKNOWN","rcs_meters":null,"size_class":null,"mass_kg":null,"dimensions":null,"purposes":[],"wikipedia_slug":null,"has_3d_model":false,"image_url":null,"decayed_at":null,"tle_current":{"epoch":"2026-09-20T13:40:31.174464Z","epoch_age_seconds":90661,"freshness":"FRESH","line1":"1 67530U 26013J   26263.56980526 -.00000095  00000+0  63096-4 0  9995","line2":"2 67530  50.0088  13.2149 0000711 106.4261 253.6689 13.29329636 32731","mean_motion":13.29329636,"eccentricity":7.11e-5,"inclination_deg":50.0088,"raan_deg":13.2149,"arg_perigee_deg":106.4261,"mean_anomaly_deg":253.6689,"bstar":6.3096e-5,"rev_number":3273,"period_min":108.32527621463,"perigee_km":1148.7576454767,"apogee_km":1149.8280460008,"semimajor_km":7527.4298457387,"source":"CELESTRAK","updated_at":"2026-09-21T09:00:16.682016Z"}}}